Location: Little Arabia
(41.4620°N, 81.7687°W)
Time: 20:12:31
(UTC+00:00)

Okean O Rocket - Pass Details

Date: 29 October 2020
Orbit: 623 x 644 km, 98.2° (Epoch: 03 December)

Event Time Altitude Azimuth Distance (km) Brightness Sun altitude
Rises 23:50:18 0° 200° (SSW) 2,907 5.3 -16.5°
Reaches altitude 10° 23:52:56 10° 216° (SW) 2,001 4.7 -17.0°
Maximum altitude 23:56:14 21° 266° (W) 1,412 4.4 -17.6°
Drops below altitude 10° 23:59:34 10° 316° (NW) 2,005 4.7 -18.2°
Sets 00:02:14 0° 332° (NNW) 2,915 5.4 -18.7°
